Location: Melizzano
(41.1500°N, 14.5000°E)
Time: 22:27:11
(UTC+00:00)

GPS 2-04 Rocket1 - Pass Details

Date: 11 May 2021
Orbit: 415 x 541 km, 35.6° (Epoch: 24 June)

Event Time Altitude Azimuth Distance (km) Brightness Sun altitude
Rises 18:46:06 0° 232° (SW) 2,680 6.6 -6.9°
Reaches altitude 10° 18:48:39 10° 218° (SW) 1,785 5.5 -7.3°
Maximum altitude 18:52:01 25° 163° (SSE) 1,107 4.0 -7.8°
Enters shadow 18:55:19 10° 108° (ESE) 1,744 4.7 -8.4°
